sat.trackr.live / text

‹ back to catalog

ONEWEB-0255

NORAD 48973 · 2021-060G

PAYLOAD ACTIVE UNKNOWN

§ Identity

Operator
Country
UK
Launch date
2021-07-01
Launch site
VOSTO
Launch vehicle
Mass (kg)
RCS (m²)

Purposes: comms

External: N2YO · Heavens-Above · Gunter

§ Orbital elements

Epoch: 2026-09-14T08:10:29.213760Z

Period
109.37 min
Inclination
87.9147°
Eccentricity
0.0002018
Mean motion
13.16593941 rev/d
Perigee alt
1,196.2 km
Apogee alt
1,199.3 km
Semi-major
7,575.9 km
B*
9.1246e-5
RAAN
211.0769°
Arg perigee
74.8068°
Mean anomaly
285.3286°
Rev number
25,139

§ Raw data

ONEWEB-02551 48973U 21060G   26257.34061590  .00000048  00000+0  91246-4 0  99972 48973  87.9147 211.0769 0002018  74.8068 285.3286 13.16593941251395

JSON: /api/v1/satellites/48973 · /tle

For live sub-satellite position, see the globe view (requires WebGL).

§ Visibility from observer

Set your observer location to see the next 7 days of passes ≥ 10°. The values pass through the URL so the page stays shareable.

No JS? Fill the form by hand. The geolocation button needs JavaScript.